Weather History for St. Johnsbury, VT

Change the Weather History Date:

Thursday, March 14, 2013

  Actual Average Record
Temperature  
Mean Temperature 22 °F 29 °F  
Max Temperature 29 °F 40 °F 62 °F (1946)
Min Temperature 15 °F 18 °F -17 °F (1926)
Degree Days  
Heating Degree Days 43 36  
Month to date heating degree days 445 540  
Since 1 July heating degree days 5923 6264  
Cooling Degree Days 0 0  
Month to date cooling degree days 0 0  
Year to date cooling degree days 0 0  
Moisture  
Dew Point 14 °F    
Average Humidity 70    
Maximum Humidity 92    
Minimum Humidity 47    
Precipitation  
Precipitation 0.00 in 0.08 in 1.84 in (1984)
Month to date precipitation 0.97 1.07  
Year to date precipitation 4.35 5.75  
Sea Level Pressure  
Sea Level Pressure 29.77 in    
Wind  
Wind Speed - (North)    
Max Wind Speed -    
Max Gust Speed -    
T = Trace of Precipitation, MM = Missing Value Source: NWS Daily Summary

Daily Weather History Graph

Daily Weather History Graph

Search for Another Location

Airport:

Trip Planner

Search our weather history database for the weather conditions in past years. The results will help you decide how hot, cold, wet, or windy it might be!

Date:

Astronomy

Mar. 14, 2013 Rise Set
Actual Time 7:01 AM EDT 6:53 PM EDT
Civil Twilight 6:32 AM EDT 7:22 PM EDT
Nautical Twilight 5:59 AM EDT 7:56 PM EDT
Astronomical Twilight 5:24 AM EDT 8:30 PM EDT
Moon 8:05 AM EDT (3/14) 10:16 PM EDT (3/14)
Length of Visible Light 12h 49m
Length of Day
11h 51m
Waxing Crescent, 9% of the Moon is Illuminated
Mar 14
Waxing Crescent
Mar 19
First Quarter
Mar 27
Full
Apr 3
Last Quarter
Apr 10
New

Hourly Weather History & Observations

Time (EDT) Temp. Dew Point Humidity Pressure Visibility Wind Dir Wind Speed Gust Speed Precip Events Conditions
12:54 AM 26.1 °F 25.0 °F 96% 29.73 in - North - - N/A   Unknown
1:54 AM 26.1 °F 25.0 °F 96% 29.72 in - North - - N/A   Unknown
2:54 AM 26.1 °F 25.0 °F 96% 29.72 in - North - - N/A   Unknown
3:54 AM 26.1 °F 25.0 °F 96% 29.70 in - North - - N/A   Unknown
4:54 AM 26.1 °F 25.0 °F 96% 29.70 in - North - - N/A   Unknown
5:54 AM 26.1 °F 23.0 °F 88% 29.71 in - North - - N/A   Unknown
6:54 AM 28.0 °F 21.9 °F 78% 29.71 in - North - - N/A   Unknown
7:54 AM 28.0 °F 19.9 °F 72% 29.72 in - North - - N/A   Unknown
8:54 AM 28.0 °F 19.9 °F 72% 29.73 in - North - - N/A   Unknown
9:54 AM 28.0 °F 18.0 °F 66% 29.74 in - North - - N/A   Unknown
10:54 AM 28.0 °F 16.0 °F 61% 29.74 in - North - - N/A   Unknown
11:54 AM 28.0 °F 15.1 °F 58% 29.73 in - North - - N/A   Unknown
12:54 PM 28.9 °F 12.9 °F 51% 29.73 in - North - - N/A   Unknown
3:54 PM 24.1 °F 8.1 °F 51% 29.76 in - North - - N/A   Unknown
4:54 PM 21.0 °F 5.0 °F 50% 29.80 in - North - - N/A   Unknown
5:54 PM 18.0 °F 3.0 °F 52% 29.84 in - North - - N/A   Unknown
6:54 PM 17.1 °F 3.0 °F 54% 29.86 in - North - - N/A   Unknown
7:54 PM 17.1 °F 3.0 °F 54% 29.87 in - North - - N/A   Unknown
8:54 PM 17.1 °F 5.0 °F 59% 29.88 in - North - - N/A   Unknown
9:54 PM 16.0 °F 5.0 °F 62% 29.89 in - North - - N/A   Unknown
10:54 PM 15.1 °F 6.1 °F 68% 29.88 in - North - - N/A   Unknown
11:54 PM 15.1 °F 7.0 °F 70% 29.88 in - North - - N/A   Unknown